Погода в Софии

Болгария     42°41′51″N   23°19′18″E
темп.,
°C
ветер,
м/с
пор.,
м/с
влажн.,
%
обл.,
%
осадки,
мм/ч
давл.,
гПа
погр.,
м
16 апреля, пт
пт1600:00+1з24705 0.0 1022222
03:000зсз24745 0.0 1022224
06:000зсз237715 0.0 1022143
09:00+3зсз36575 0.0 1022643
12:00+7зсз45370 0.0 10211331
15:00+10сз453458 0.0 10181616
18:00+9сз4441100 0.0 1018802
21:00+6ссв1254100 0.0 1019109
17 апреля, сб
сб1700:00+4всв2263100 0.0 1020161
03:00+4всв1264100 0.0 1019151
06:00+3св1393100 1.4 1019355
09:00+4всв2596100 2.1 1019548
12:00+5в4690100 0.2 1018629
15:00+7в4685100 0.3 1016670
18:00+6в4889100 0.1 1015741
21:00+6в3793100 0.4 1014495
18 апреля, вс
вс1800:00+6в2693100 0.0 1014487
03:00+5в3693100 0.0 1014425
06:00+5в369382 0.0 1013321
09:00+6вюв348585 0.0 1013377
12:00+11всв136992 0.0 1012811
15:00+12сз217188 0.2 1012548
18:00+11сз327689 0.6 1013636
21:00+8с238791 0.7 1015213
19 апреля, пн
пн1900:00+7с118994 0.1 1016149
03:00+6ссв2397100 4.8 1014198
06:00+6с1297100 3.7 1013175
09:00+5ссв2293100 5.7 1013325
12:00+5ссв2394100 2.8 1012445
15:00+5с1393100 3.4 1011603
18:00+5св1291100 0.1 1009576
21:00+5зсз3595100 0.2 1010679
20 апреля, вт
вт2000:00+5зюз389178 0.1 1010556
03:00+4з488899 0.1 1011439
06:00+4з278917 0.1 1012244
09:00+6з3779100 0.1 1013509
12:00+6зсз3789100 0.1 1014640
15:00+9зсз586720 0.4 10131099
18:00+9сз466812 0.1 1013698
21:00+6зсз128384 0.1 101538